Location: Peterborough
(44.3091°N, 78.3197°W)
Time: 07:08:50
(UTC-04:00)

A-11 Canister half - Pass Details

Date: 30 March 2023
Orbit: 1513 x 1686 km, 47.2° (Epoch: 04 June)

Event Time Altitude Azimuth Distance (km) Brightness Sun altitude
Rises 21:03:53 0° 229° (SW) 4,752 12.0 -15.7°
Reaches altitude 10° 21:06:57 10° 226° (SW) 3,792 11.4 -16.2°
Maximum altitude 21:16:29 66° 148° (SSE) 1,761 9.1 -17.8°
Drops below altitude 10° 21:26:24 10° 69° (ENE) 3,928 10.7 -19.4°
Enters shadow 21:27:05 - 69° (ENE) 4,143 10.9 -19.5°
